Location: Sawyer Lake
(45.2517°N, 88.7550°W)
Time: 18:27:54
(UTC-05:00)

Daily predictions for brighter satellites

Satellite Brightness Start Highest point End
(mag) Time Altitude Azimuth Time Altitude Azimuth Time Altitude Azimuth
Cosmos 1656 3.7 19:56:13 10° S 20:01:44 63° ESE 20:07:13 10° NNE
FENGYUN 3A 3.8 19:57:53 10° SSE 20:03:08 60° ENE 20:08:25 10° N
Cosmos 2369 4.0 19:58:36 10° SSW 20:04:17 75° WNW 20:10:02 10° NNE
ALOS 2.3 20:00:53 10° SSE 20:05:30 63° ENE 20:10:08 10° N
Meteor 1-28 Rocket 4.3 20:02:36 10° N 20:06:18 50° WNW 20:09:58 10° SSW
Spot 2 Rocket 4.1 20:01:24 10° S 20:06:27 64° WSW 20:11:30 10° NNW
H-2A R/B 3.0 20:05:00 10° SSE 20:08:48 52° ENE 20:12:40 10° N
Resurs 1-3 3.9 20:05:32 10° S 20:09:54 73° WSW 20:14:19 10° NNW
RESURS DK-1 2.4 20:08:11 10° NNW 20:12:20 74° ENE 20:16:29 10° SSE
Cosmos 2123 Rocket 4.3 20:07:16 10° NNW 20:13:26 72° W 20:19:34 10° S
Cosmos 1937 Rocket 3.6 20:09:03 10° NNW 20:14:19 64° ENE 20:19:35 10° SSE
Cosmos 2263 Rocket 3.9 20:12:38 10° N 20:16:12 17° NE 20:19:46 10° E
Envisat 4.2 20:12:59 10° ESE 20:17:06 26° ENE 20:21:14 10° N
CZ-4 DEB 4.2 20:14:52 10° ESE 20:17:13 21° ENE 20:19:41 10° NNE
Cosmos 1459 Rocket 4.4 20:12:05 10° SSE 20:17:36 38° E 20:23:12 10° NNE
Tiangong 1 2.5 20:15:42 10° W 20:18:24 27° SSW 20:21:04 10° SE
Cosmos 990 Rocket 4.2 20:15:00 10° NNW 20:20:09 54° ENE 20:25:16 10° SE
Cosmos 2227 Rocket 4.0 20:20:44 10° NW 20:25:41 32° WSW 20:30:37 10° SSW
Cosmos 1500 3.1 20:22:40 10° S 20:26:23 62° E 20:30:09 10° NNE
Cosmos 2298 Rocket 4.4 20:22:29 10° NNW 20:27:46 68° WSW 20:33:03 10° S
Cosmos 1340 3.4 20:24:36 10° N 20:28:08 35° ENE 20:31:12 13° SE
Cosmos 2322 Rocket 3.4 20:27:43 10° SE 20:31:39 20° E 20:35:38 10° NE
ERS-1 Rocket 3.4 20:28:59 10° SE 20:33:43 43° ENE 20:38:28 10° N
EO 1 Delta rocket 4.1 20:30:09 10° N 20:34:58 89° WNW 20:40:40 10° SSW
CZ-2D R/B 3.6 20:32:51 10° S 20:36:43 67° W 20:40:37 10° NNW
Cosmos 2297 Rocket 3.8 20:35:11 10° NW 20:40:13 34° WSW 20:45:14 10° SSW
Resurs 01 Rocket 3.8 20:38:01 10° SSW 20:41:47 27° W 20:45:34 10° NW
Cosmos 1975 3.7 20:38:27 10° SSW 20:42:29 54° WNW 20:46:31 10° N
Cosmos 1726 Rocket 4.2 20:40:19 10° SSE 20:44:17 34° E 20:48:17 10° NNE
Cosmos 1763 Rocket 3.5 20:41:13 10° S 20:46:08 52° ESE 20:51:03 10° NNE
Cosmos 2360 4.3 20:48:12 10° S 20:53:44 54° ESE 20:59:19 10° NE
Cosmos 2227 4.2 20:49:31 10° NNW 20:55:19 87° ENE 21:00:00 16° SSE
H-2A R/B 4.0 20:54:31 10° ENE 20:55:47 11° NE 20:57:04 10° NE
Cosmos 1825 Rocket 3.5 20:53:09 10° N 20:57:36 84° E 21:01:32 13° S
BREEZE-M DEB (TANK) 1.6 20:55:40 10° WNW 20:57:48 88° SSW 20:59:21 29° ESE
USA 215 4.5 20:53:08 10° ENE 20:58:54 34° N 21:04:39 10° NW
ASTEX 1 4.0 20:58:31 10° NNE 21:03:08 36° E 21:05:15 25° SE
Meteor 1-21 4.2 20:57:28 10° N 21:03:18 82° E 21:08:38 13° SSE
Cosmos 405 Rocket 4.1 21:01:37 10° NNE 21:04:29 20° ENE 21:04:30 20° ENE
Cosmos 1125 Rocket 3.7 21:00:39 10° NNW 21:05:47 55° ENE 21:08:30 27° SE
Cosmos 1802 Rocket 4.0 21:01:52 10° S 21:08:17 80° E 21:14:44 10° N
Cosmos 2228 3.7 21:08:22 31° ESE 21:09:02 33° E 21:12:52 10° NNE
Cosmos 2016 Rocket 3.9 21:04:10 10° S 21:10:15 70° E 21:16:28 10° NNE
Cosmos 1953 Rocket 3.5 21:06:06 10° N 21:10:36 85° E 21:13:39 20° S
Cosmos 841 Rocket 3.4 21:07:06 10° SSW 21:12:19 78° ESE 21:17:33 10° NNE
Cosmos 540 Rocket 4.1 21:12:08 30° ESE 21:13:03 32° E 21:17:33 10° NE
Cosmos 1743 3.1 21:09:25 10° SSW 21:13:19 66° W 21:17:13 10° N
H-2A R/B 2.2 21:12:09 34° SE 21:13:34 52° ENE 21:17:39 10° N
Cosmos 1697 Rocket 3.7 21:09:19 10° SW 21:14:48 49° WNW 21:20:18 10° NNE
SPOT 1/Viking Rocket 4.5 21:13:18 26° E 21:14:54 32° ENE 21:19:29 10° N
Cosmos 332 Rocket 4.3 21:17:01 33° SE 21:17:55 36° ESE 21:22:24 10° NE
Cosmos 2173 Rocket 4.2 21:15:33 10° SSW 21:21:54 73° W 21:28:13 10° N
Cosmos 2098 Rocket 3.8 21:15:29 10° S 21:21:58 65° E 21:27:09 10° NNE
ARGOS 3.9 21:20:24 29° E 21:21:58 35° ENE 21:26:49 10° N
Cosmos 1939 Rocket 3.1 21:22:25 25° S 21:24:44 73° WSW 21:28:56 10° NNW
Lacrosse 5 4.0 21:22:54 10° WNW 21:26:28 19° WSW 21:30:00 10° SSW
MetOp-B 4.2 21:25:39 34° SE 21:27:48 59° ENE 21:33:04 10° N
Cosmos 1758 Rocket 3.7 21:24:20 10° NNW 21:28:40 72° W 21:30:56 27° S
BREEZE-M TANK 3.5 21:21:06 10° WNW 21:29:57 44° SW 21:31:15 33° S
SL-16 R/B 2.2 21:25:06 10° S 21:30:37 56° ESE 21:36:10 10° NNE
Cosmos 372 Rocket 4.1 21:26:43 10° NNW 21:31:48 57° ENE 21:33:14 42° ESE
BREEZE-M DEB (TANK) 4.2 21:31:04 10° WNW 21:35:00 75° SSW 21:40:18 30° SE
SPOT 5 2.7 21:36:37 42° SSE 21:38:17 81° ENE 21:42:59 10° NNW
Cosmos 1864 Rocket 4.3 21:34:34 18° S 21:39:16 77° E 21:45:25 10° N
Cosmos 1980 Rocket 3.1 21:34:14 10° SW 21:39:45 51° WNW 21:45:20 10° NNE
Cosmos 2360 Rocket 3.6 21:42:34 21° ENE 21:42:34 21° ENE 21:45:03 10° NE
Meteor 2-17 Rocket 4.5 21:40:16 38° SE 21:42:15 54° E 21:48:08 10° NNE
YAOGAN 6 2.6 21:42:51 71° ENE 21:42:51 71° ENE 21:46:29 10° N
deb Chang Zheng 4 3.5 21:41:54 10° NNE 21:46:23 89° ESE 21:47:57 41° SSW
Terra 3.3 21:47:05 23° ENE 21:47:05 23° ENE 21:50:36 10° NNE
Cosmos 1666 3.4 21:48:55 29° SW 21:50:34 51° WNW 21:54:19 10° N
Cosmos 1842 4.3 21:49:20 10° NNW 21:53:02 42° W 21:54:09 33° SW
Tsikada Rocket 4.1 21:48:36 10° N 21:55:02 76° W 21:58:25 30° S
Envisat 3.9 21:52:51 21° SSW 21:55:52 45° W 22:00:45 10° NNW
Cosmos 1707 4.2 21:52:34 10° N 21:54:55 27° NE 21:54:55 27° NE
CZ-4B R/B 4.2 21:53:46 10° NNE 21:57:06 36° ENE 21:57:06 36° ENE
Cosmos 2263 Rocket 2.0 21:55:25 10° NNW 22:01:02 84° ENE 22:02:03 61° SE
Cosmos 2058 Rocket 4.0 21:59:23 18° SW 22:02:31 47° WNW 22:06:54 10° N
SL-08 RB Rocket 3.8 22:04:24 62° ENE 22:04:24 62° ENE 22:08:48 10° N
Cosmos 1725 Rocket 4.4 22:07:38 14° SSW 22:13:00 60° WNW 22:19:13 10° N
Cosmos 2322 Rocket 2.5 22:09:35 10° SW 22:15:09 65° WNW 22:20:46 10° NNE
BREEZE-M DEB (TANK) 2.9 22:07:09 10° WSW 22:17:06 87° SSE 22:17:26 77° E
Cosmos 2322 4.4 22:27:10 42° NE 22:27:10 42° NE 22:31:06 10° NNE
SL-19 R/B 4.2 22:25:22 10° NNE 22:30:47 75° WNW 22:31:25 66° SW
Cosmos 2233 Rocket 4.2 22:30:38 41° SSW 22:32:51 67° W 22:39:08 10° N
Cosmos 1072 Rocket 4.5 22:34:06 65° E 22:34:06 65° E 22:39:59 10° NNE
Cosmos 1812 Rocket 4.4 22:35:26 47° NNW 22:35:26 47° NNW 22:38:39 10° N
H-2A R/B 2.2 22:35:08 62° NNE 22:35:08 62° NNE 22:39:18 10° N
Meteor 2-5 Rocket 3.9 22:33:25 10° NNW 22:39:17 67° W 22:39:49 64° SW
USA 215 3.5 22:39:52 52° ENE 22:41:13 63° NNE 22:47:40 10° NW
Meteor 1-24 Rocket 3.8 22:36:08 10° N 22:42:01 78° NE 22:42:01 78° NE
ATLAS CENTAUR R/B 4.2 22:49:06 53° SE 22:49:44 53° ESE 23:09:54 10° NE
H-2A R/B 4.5 22:49:17 14° WSW 22:49:56 15° W 22:52:19 10° NW
COSMOS 2428 4.3 22:54:28 24° NE 22:54:28 24° NE 22:56:48 10° NE
Cosmos 2278 Rocket 3.5 22:52:29 10° N 22:57:01 30° NE 22:57:01 30° NE
Cosmos 371 Rocket 4.5 22:59:32 38° WNW 22:59:51 38° WNW 23:04:24 10° N
ARGOS 4.3 23:01:56 35° WSW 23:02:10 35° W 23:07:07 10° NNW
Cosmos 2034 Rocket 4.2 23:04:21 62° NE 23:04:21 62° NE 23:09:32 10° NNE
Cosmos 1844 Rocket 3.2 23:05:59 10° NNW 23:10:21 53° N 23:10:21 53° N
SL-16 R/B 4.1 23:10:18 10° WSW 23:15:04 27° NW 23:19:52 10° N
Cosmos 1464 Rocket 4.3 23:23:41 60° WNW 23:23:41 60° WNW 23:29:58 10° N
Cosmos 2360 Rocket 2.9 23:24:17 49° NW 23:24:17 49° NW 23:29:37 10° NNE
Terra 3.4 23:25:58 32° NW 23:25:58 32° NW 23:28:55 10° NNW
Cosmos 1844 4.4 23:19:28 10° NNW 23:23:42 49° N 23:23:42 49° N
Nadezhda 4 Rocket 4.3 23:24:40 10° N 23:30:02 66° NNW 23:30:02 66° NNW
Lacrosse 4 Rocket 3.9 23:34:09 19° N 23:34:09 19° N 23:35:35 10° NNE
Cosmos 2219 Rocket 3.9 23:44:56 25° NE 23:44:56 25° NE 23:47:11 10° NNE
Cosmos 2263 Rocket 4.4 23:41:15 10° WNW 23:43:45 14° W 23:43:45 14° W
ATLAS 3B R/B 3.8 23:53:38 37° ENE 23:53:38 37° ENE 23:58:01 10° NE
COSMOS 2455 4.5 23:54:59 26° NE 23:54:59 26° NE 23:57:29 10° NE
ATLAS CENTAUR R/B 4.4 23:51:16 10° N 23:53:10 12° NNE 23:53:10 12° NNE
